Regional Weather Roundup
Issued by NWS Upton, NY

Current Version | Previous Version | Graphics & Text | Print | Product List | Glossary Off
Versions: 1 2 3 4 5 6 7 8 9 10 11 12 13 14 15 16 17 18 19 20 21 22 23 24 25 26 27 28 29 30 31 32 33 34 35 36 37 38 39 40 41 42 43 44 45 46 47 48 49 50

000
ASUS41 KOKX 040604
RWROKX

REGIONAL WEATHER ROUNDUP
NATIONAL WEATHER SERVICE NEW YORK NY
200 AM EDT TUE AUG 04 2015

NOTE: "FAIR" INDICATES FEW OR NO CLOUDS BELOW 12,000 FEET WITH NO
SIGNIFICANT WEATHER AND/OR OBSTRUCTIONS TO VISIBILITY.

NYZ071-072-176-178-NJZ106-104-040700-
NEW YORK CITY METRO AREA


CITY           SKY/WX    TMP DP  RH WIND       PRES   REMARKS
CENTRAL PARK   PTCLDY    80  64  58 VRB3      29.85R
LAGUARDIA APRT MOCLDY    81  64  56 SW10      29.81R
KENNEDY INTL   MOCLDY    76  71  85 SW9       29.83S
NEWARK/LIBERTY CLOUDY    79  66  64 S5        29.82R
BRNX BOT. GARD   N/A     81  63  54 W3        29.84R
TETERBORO      PTCLDY    79  62  56 SW5       29.81R
$$

NYZ177-179-078>081-040700-
LONG ISLAND NEW YORK

CITY           SKY/WX    TMP DP  RH WIND       PRES   REMARKS
FARMINGDALE    PTCLDY    77  73  87 SW12      29.83S
ISLIP          MOCLDY    77  74  90 SW16      29.82S
SHIRLEY        CLOUDY    78  75  90 SW13G21   29.84S
WESTHAMPTON    CLOUDY    77  75  93 SW10      29.85S
MONTAUK POINT    N/A     77  74  90 SW8G23    29.85S
$$

NYZ052-065-067-040700-
HUDSON VALLEY

CITY           SKY/WX    TMP DP  RH WIND       PRES   REMARKS
WHITE PLAINS   MOCLDY    72  64  76 CALM      29.83R
NEWBURGH       NOT AVBL
MONTGOMERY     CLOUDY    71  62  73 W6        29.81S
POUGHKEEPSIE   CLOUDY    78  62  57 SW10      29.80R
ALBANY         LGT RAIN  68  65  90 S3        29.82R
$$

NJZ001-105-106-008-010-013-015-019>022-104-040700-
NEW JERSEY

CITY           SKY/WX    TMP DP  RH WIND       PRES   REMARKS
NEWARK/LIBERTY CLOUDY    79  66  64 S5        29.82R
TETERBORO      PTCLDY    79  62  56 SW5       29.81R
CALDWELL       PTCLDY    77  61  57 S3        29.82R
MORRISTOWN     PTCLDY    70  63  78 CALM      29.82R
SOMERVILLE     MOCLDY    69  64  84 CALM      29.81R
SUSSEX         MOCLDY    66  64  93 SW3       29.83S
ANDOVER          N/A     67  64  90 CALM      29.84R
TRENTON        LGT RAIN  77  68  73 W13       29.84R
MILLVILLE      CLEAR     78  73  84 VRB7      29.84S
ATLANTIC CITY  CLEAR     77  74  90 S10       29.84S
WRIGHTSTOWN    CLEAR     74  73  97 SW7       29.81R
TOMS RIVER       N/A     75  72  88 SW8       29.85R
BELMAR         CLEAR     75  70  83 SW7       29.84R
$$

PAZ047>061-062-071-040700-
EASTERN PENNSYLVANIA

CITY           SKY/WX    TMP DP  RH WIND       PRES   REMARKS
PHILADELPHIA   MOCLDY    81  68  64 W6        29.84R
ALLENTOWN      MOCLDY    71  67  87 CALM      29.82S
SCRANTON       LGT RAIN  70  67  90 CALM      29.82F
$$

CTZ002-004>006-009-010-012-RIZ004-006-007-MAZ004-011-015-040700-
SOUTHERN NEW ENGLAND
 IN CT

CITY           SKY/WX    TMP DP  RH WIND       PRES   REMARKS
BRADLEY INTL   MOCLDY    73  69  87 CALM      29.81R
HARTFORD       CLEAR     74  71  91 S5        29.80S
DANBURY        CLOUDY    73  62  68 CALM      29.84R
WTRBRY/OXFORD  MOCLDY    72  64  78 S5        29.86R
BRIDGEPORT     MOCLDY    76  72  87 SW8       29.82R
MERIDEN        PTCLDY    71  69  93 CALM      29.82R FOG
NEW HAVEN      MOCLDY    75  72  90 S3        29.83R
CHESTER        FAIR      73  73 100 SW6       29.85S
GROTON         CLEAR     74  73  97 SW7       29.82S
WILLIMANTIC    MOCLDY    74  71  91 S3        29.83R

 IN RI

CITY           SKY/WX    TMP DP  RH WIND       PRES   REMARKS
PROVIDENCE     CLEAR     76  71  85 SW9       29.83S
BLOCK ISLAND     N/A     73  73 100 SW14G20   29.85F
WESTERLY       MOCLDY    75  72  90 SW8       29.84S

 IN MA

CITY           SKY/WX    TMP DP  RH WIND       PRES   REMARKS
BOSTON         PTCLDY    74  70  87 SW10      29.81S
WORCESTER      MOCLDY    69  68  96 SW10      29.85R FOG
WESTFIELD      CLEAR     69  66  90 CALM      29.81R
PROVINCETOWN   MOCLDY    73  66  78 SW14      29.84R
NANTUCKET      CLEAR     73  71  93 SW14      29.86S
$$

ANZ330-335-338-340-345-350-353-355-040700-
COASTAL MARINE OBSERVATIONS


STATION/POSITION TIME  SKY/WX   TEMP    WIND        PRES    VSBY  WAVE
                                AIR SEA DIR/SP/G                  HT/PER
                 (UTC)          (F)     (DEG/KT/KT) (MB)    (MI)  (FT/S)
NY HARB ENTRANCE 0450            77 75  210/ 17/ 19 1009.2          4/ 6
4S FIRE IS       NOT AVBL
20S FIRE ISLAND  0450            77 75  210/ 16/ 17 1009.9          6/ 6
GREAT SOUTH BAY  0500            78 80  230/ 16/ 19   N/A
23SW MTP         0550            77 75  230/ 17/ 21 1010.0          5/ 6
HUDSON CANYON    NOT AVBL
KINGS POINT      0500            77 71  190/  9/ 10 1008.8
EXECUTION ROCKS  0500            77     180/  6/  8   N/A
CENTRAL LI SOUND NOT AVBL
EASTERN LI SOUND 0500            73 69  210/ 14/ 17   N/A
ROBBINS REEF     0500            77     180/  8/  8 1008.3
$$


>>>>>>>>>>>>>>>>>>>>>>>>>>>> KEY <<<<<<<<<<<<<<<<<<<<<<<<<<<
>                                                          <
>     SKY/WX - SKY CONDITION/PRESENT WEATHER               <
>     TMP    - TEMPERATURE IN FAHRENHEIT                   <
>     DP     - DEWPOINT IN FAHRENHEIT                      <
>     RH     - RELATIVE HUMIDITY IN PERCENT                <
>     WIND   - DIRECTION AND SPEED IN MPH                  <
>     PRES   - MEAN SEA LEVEL PRESSURE IN INCHES OF HG     <
>     WCI    - WIND CHILL INDEX                            <
>     VSB    - VISIBILITY IN MILES                         <
>     HX     - HEAT INDEX                                  <
>     TC     - TEMPERATURE IN CELSIUS                      <
>     VRB    - VARIABLE WIND DIRECTION                     <
>                                                          <
>>>>>>>>>>>>>>>>>>>>>>>>>>>> KEY <<<<<<<<<<<<<<<<<<<<<<<<<<<




USA.gov is the U.S. government's official web portal to all federal, state and local government web resources and services.